Regional Weather Roundup
Issued by NWS

Home | Current Version | Previous Version | Text Only | Print | Product List | Glossary Off
Versions: 1 2 3 4 5 6 7 8 9 10 11 12 13 14 15 16 17 18 19 20 21 22 23 24 25 26 27 28 29 30 31 32 33 34 35 36 37 38 39 40 41 42 43 44 45 46 47 48 49 50

000
ASUS43 KFSD 241202
RWRSD

WEATHER ROUNDUP FOR SOUTH DAKOTA
NATIONAL WEATHER SERVICE SIOUX FALLS SD
700 AM CDT SUN JUL 24 2016

NOTE: "FAIR" INDICATES FEW OR NO CLOUDS BELOW 12,000 FEET WITH NO
SIGNIFICANT WEATHER AND/OR OBSTRUCTIONS TO VISIBILITY.


SDZ001>005-009-010-012>017-241300-
NORTHWEST AND NORTH CENTRAL SOUTH DAKOTA

CITY           SKY/WX    TMP DP  RH WIND       PRES   REMARKS
BUFFALO          N/A     62  49  62 S5        30.01S
FAITH            N/A     59  47  64 SW6       30.09R
MOBRIDGE       CLEAR     63  56  78 N7        29.98R
$$

SDZ012>016-024>037-041>051-057-063-072>074-241300-
SOUTHWEST AND SOUTH CENTRAL SOUTH DAKOTA

CITY           SKY/WX    TMP DP  RH WIND       PRES   REMARKS
RAPID CTY ARPT CLOUDY    61  53  75 NE10      30.12R
PIERRE         CLOUDY    67  56  67 W5        30.05R
CUSTER         CLOUDY    54  45  71 NE9       30.22R
ELLSWORTH AFB  CLOUDY   N/A N/A N/A N9        30.13
PHILIP         LGT RAIN  63  55  75 W6        30.08R
PINE RIDGE     CLOUDY    57  53  86 E6        30.09R
WINNER         LGT RAIN  66  56  70 NW10      30.06R
$$

SDZ004>011-016>023-039-040-241300-
NORTHEAST SOUTH DAKOTA

CITY           SKY/WX    TMP DP  RH WIND       PRES   REMARKS
ABERDEEN       CLEAR     65  57  75 NW14      29.93F
WATERTOWN      CLEAR     66  59  78 NW12      29.94R
BROOKINGS      CLEAR     66  64  93 NW6       29.94
SISSETON         N/A     66  59  78 NW10      29.90R
$$

SDZ017-020-022-023-036>040-048>070-241300-
SOUTHEAST SOUTH DAKOTA

CITY           SKY/WX    TMP DP  RH WIND       PRES   REMARKS
SIOUX FALLS    MOCLDY    69  65  86 NW7       29.93R
HURON          PTCLDY    62  58  86 CALM      29.95R
CHAMBERLAIN    MOCLDY    70  59  66 N7        30.00S
MITCHELL       CLOUDY    65  60  84 NW7       29.95R
YANKTON        CLOUDY    66  64  94 CALM      29.91R
$$

ABBREVIATIONS USED IN REMARKS
   TC - TEMPERATURE IN CELSIUS
  WCI - WIND CHILL INDEX
   HX - HEAT INDEX
  VSB - VISIBILITY




USA.gov is the U.S. government's official web portal to all federal, state and local government web resources and services.